Back to catalog

SENTINEL-2C

AliveScienceSSO
NORAD 60989·PAYLOAD·🇪🇺 EU

Launched Sep 5, 2024 from Guiana Space Centre

Loading…

Next Passes (next 24 hours)

TLE

FreshSource: Space-Track

Epoch: Sep 14, 2026, 14:42 UTC

1 60989U 24157A   26257.61309269  .00000051  00000-0  36007-4 0  9995
2 60989  98.5726 331.1028 0001403  88.0657 272.0687 14.30813356105777

Track SENTINEL-2C in real time with AllMySat

Download on the App Store